O3B FM11

Last updated on Thu Sep 10 2026 00:03:17 GMT+0000 (Coordinated Universal Time)

1 40349U 14083B 26252.52585681 -.00000028 00000+0 00000+0 0 9992 2 40349 0.0543 347.9510 0002201 166.1082 205.9507 5.00115493214128
UTC large
Height (km)
Speed (km/s)
/
Latitude / Longitude
Inclination (degrees)
Orbital Period (minutes)
Azimuth
Elevation
Range (km)
Doppler Factor

Next 0 passes for location: London (51.5072 / 0.1276)

No passes found over London.
O3B FM11